Find Lemur-2 Starlight

NORAD ID: 66783 Int'l Des: 2025-276 Owner: SPIRE Country: US Constellation: spire operational
LEOCIRCULARRETROGRADESSO

当前视图

正在加载3D地球...

About Lemur-2 Starlight

Lemur-2 Starlight (NORAD 66783) is a spire constellation satellite launched Nov 28, 2025 by SPIRE of US. It operates in LEO, CIRCULAR, RETROGRADE, SSO orbit with a mass of 7.60 kg.

关于 Lemur-2 Starlight

正在加载描述...

即将过境

Passes for default location (London). Set your location on the main map for personalized predictions.

高度历史

Loading altitude history...

两行轨道根数

1 66783U 25276DY 26169.70529125 .00004196 00000-0 34970-3 0 9993
2 66783 97.5254 240.2923 0015111 123.8840 236.3823 14.99053840 30420
Epoch: Jun 18, 2026 • Age: 9 hours

当前状态

高度 592.2 km
速度 7.56 km/s
星下点 -49.62°S, 115.08°E
发射日期 Nov 28, 2025
运行时间 0.5 years
类型 other

技术详情

分类 Payload
质量 7.60 kg
干质量 7.60 kg
总质量 7.60 kg
长度 0.30 m
直径 0.10 m
跨度 1.00 m
形状 Box+ 2 pan
制造商 SPIREG
平台类型 Cubesat 3U
阶段状态 In Orbit
所有者/国家 SPIRE/US

Most Searched